Volver al catálogo

TITAN 3C TRANSTAGE DEB

ActivoMEO
NORAD 43282·DEBRIS·🇺🇸 United States

Lanzado Feb 9, 1969 desde Cape Canaveral Space Force Station

Loading…

Próximos Pases (próximas 24 horas)

TLE

ActualizadoSource: Space-Track

Época: Sep 14, 2026, 06:59 UTC

1 43282U 69013C   26257.29115504 -.00000201  00000-0  00000-0 0  9991
2 43282   2.4012  61.0538 0277009 232.5833 125.4439  0.91410037 28401

Sigue TITAN 3C TRANSTAGE DEB en tiempo real con AllMySat

Download on the App Store